Time,TemperatureF,DewpointF,PressureIn,WindDirection,WindDirectionDegrees,WindSpeedMPH,WindSpeedGustMPH,Humidity,HourlyPrecipIn,Conditions,Clouds,dailyrainin,SoftwareType,DateUTC
2013-02-21 00:02:00,17.0,10.0,30.12,West,275,7.0,14.0,72,0.00,,,0.00,,2013-02-21 05:02:00,
2013-02-21 00:12:00,17.0,10.0,30.12,West,275,7.0,14.0,72,0.00,,,0.00,,2013-02-21 05:12:00,
2013-02-21 00:22:00,17.0,10.0,30.12,West,268,6.0,12.0,72,0.00,,,0.00,,2013-02-21 05:22:00,
2013-02-21 00:35:00,17.0,10.0,30.12,WNW,283,7.0,15.0,72,0.00,,,0.00,,2013-02-21 05:35:00,
2013-02-21 00:45:00,17.0,10.0,30.12,WNW,283,7.0,15.0,72,0.00,,,0.00,,2013-02-21 05:45:00,
2013-02-21 01:01:00,17.0,10.0,30.12,West,263,6.0,13.0,72,0.00,,,0.00,,2013-02-21 06:01:00,
2013-02-21 01:11:00,17.0,10.0,30.12,WNW,294,8.0,15.0,72,0.00,,,0.00,,2013-02-21 06:11:00,
2013-02-21 01:21:00,17.0,10.0,30.12,West,265,7.0,11.0,73,0.00,,,0.00,,2013-02-21 06:21:00,
2013-02-21 01:31:00,17.0,10.0,30.12,NW,319,5.0,13.0,74,0.00,,,0.00,,2013-02-21 06:31:00,
2013-02-21 01:41:00,17.0,10.0,30.12,NW,319,5.0,13.0,74,0.00,,,0.00,,2013-02-21 06:41:00,
2013-02-21 01:52:00,17.0,10.0,30.12,WNW,289,6.0,14.0,75,0.00,,,0.00,,2013-02-21 06:52:00,
2013-02-21 02:01:00,17.0,10.0,30.13,West,273,6.0,12.0,75,0.00,,,0.00,,2013-02-21 07:01:00,
2013-02-21 02:11:00,17.0,10.0,30.12,WSW,257,8.0,15.0,75,0.00,,,0.00,,2013-02-21 07:11:00,
2013-02-21 02:21:00,17.0,10.0,30.12,WSW,257,8.0,15.0,75,0.00,,,0.00,,2013-02-21 07:21:00,
2013-02-21 02:32:00,17.0,11.0,30.12,WSW,252,4.0,13.0,76,0.00,,,0.00,,2013-02-21 07:32:00,
2013-02-21 02:42:00,17.0,11.0,30.13,WNW,287,5.0,9.0,76,0.00,,,0.00,,2013-02-21 07:42:00,
2013-02-21 02:52:00,17.0,11.0,30.13,WNW,287,5.0,9.0,76,0.00,,,0.00,,2013-02-21 07:52:00,
2013-02-21 03:01:00,17.0,11.0,30.13,WNW,294,6.0,12.0,76,0.00,,,0.00,,2013-02-21 08:01:00,
2013-02-21 03:11:00,17.0,11.0,30.13,WNW,294,6.0,12.0,76,0.00,,,0.00,,2013-02-21 08:11:00,
2013-02-21 03:21:00,17.0,11.0,30.12,WNW,285,6.0,16.0,76,0.00,,,0.00,,2013-02-21 08:21:00,
2013-02-21 03:32:00,17.0,11.0,30.13,WNW,291,8.0,13.0,77,0.00,,,0.00,,2013-02-21 08:32:00,
2013-02-21 03:42:00,17.0,11.0,30.13,WNW,291,8.0,13.0,77,0.00,,,0.00,,2013-02-21 08:42:00,
2013-02-21 03:52:00,17.0,11.0,30.13,WNW,282,6.0,12.0,76,0.00,,,0.00,,2013-02-21 08:52:00,
2013-02-21 04:01:00,17.0,11.0,30.13,WNW,282,7.0,11.0,76,0.00,,,0.00,,2013-02-21 09:01:00,
2013-02-21 04:11:00,17.0,11.0,30.13,WNW,282,7.0,11.0,76,0.00,,,0.00,,2013-02-21 09:11:00,
2013-02-21 04:22:00,17.0,11.0,30.13,West,275,6.0,12.0,76,0.00,,,0.00,,2013-02-21 09:22:00,
2013-02-21 04:32:00,17.0,11.0,30.14,West,281,7.0,13.0,76,0.00,,,0.00,,2013-02-21 09:32:00,
2013-02-21 04:42:00,17.0,11.0,30.14,West,281,7.0,13.0,76,0.00,,,0.00,,2013-02-21 09:42:00,
2013-02-21 04:52:00,17.0,11.0,30.14,West,269,6.0,15.0,77,0.00,,,0.00,,2013-02-21 09:52:00,
2013-02-21 05:01:00,17.0,11.0,30.14,WNW,284,6.0,14.0,78,0.00,,,0.00,,2013-02-21 10:01:00,
2013-02-21 05:11:00,17.0,11.0,30.14,WNW,284,6.0,14.0,78,0.00,,,0.00,,2013-02-21 10:11:00,
2013-02-21 05:21:00,17.0,11.0,30.15,WNW,289,8.0,12.0,78,0.00,,,0.00,,2013-02-21 10:21:00,
2013-02-21 05:31:00,17.0,12.0,30.15,West,273,7.0,10.0,79,0.00,,,0.00,,2013-02-21 10:31:00,
2013-02-21 05:41:00,17.0,12.0,30.15,West,273,7.0,10.0,79,0.00,,,0.00,,2013-02-21 10:41:00,
2013-02-21 05:51:00,17.0,12.0,30.15,WNW,283,8.0,12.0,79,0.00,,,0.00,,2013-02-21 10:51:00,
2013-02-21 06:01:00,17.0,12.0,30.16,WNW,298,7.0,12.0,80,0.00,,,0.00,,2013-02-21 11:01:00,
2013-02-21 06:11:00,17.0,12.0,30.16,WNW,298,7.0,12.0,80,0.00,,,0.00,,2013-02-21 11:11:00,
2013-02-21 06:21:00,17.0,12.0,30.16,WNW,283,8.0,13.0,79,0.00,,,0.00,,2013-02-21 11:21:00,
2013-02-21 06:31:00,17.0,12.0,30.16,WNW,283,6.0,13.0,80,0.00,,,0.00,,2013-02-21 11:31:00,
2013-02-21 06:41:00,17.0,12.0,30.16,WNW,283,6.0,13.0,80,0.00,,,0.00,,2013-02-21 11:41:00,
2013-02-21 06:52:00,17.0,12.0,30.17,WNW,290,6.0,11.0,80,0.00,,,0.00,,2013-02-21 11:52:00,
2013-02-21 07:01:00,17.0,12.0,30.18,West,271,6.0,12.0,80,0.00,,,0.00,,2013-02-21 12:01:00,
2013-02-21 07:11:00,17.0,12.0,30.18,West,271,6.0,12.0,80,0.00,,,0.00,,2013-02-21 12:11:00,
2013-02-21 07:22:00,17.0,12.0,30.18,West,268,6.0,14.0,81,0.00,,,0.00,,2013-02-21 12:22:00,
2013-02-21 07:32:00,17.0,12.0,30.18,NW,307,5.0,8.0,82,0.00,,,0.00,,2013-02-21 12:32:00,
2013-02-21 07:42:00,17.0,12.0,30.18,NW,307,5.0,8.0,82,0.00,,,0.00,,2013-02-21 12:42:00,
2013-02-21 07:53:00,17.0,13.0,30.19,West,272,5.0,12.0,83,0.00,,,0.00,,2013-02-21 12:53:00,
2013-02-21 08:02:00,17.0,13.0,30.19,WSW,246,5.0,7.0,84,0.00,,,0.00,,2013-02-21 13:02:00,
2013-02-21 08:12:00,17.0,13.0,30.19,WSW,246,5.0,7.0,84,0.00,,,0.00,,2013-02-21 13:12:00,
2013-02-21 08:22:00,17.0,13.0,30.19,WNW,288,5.0,9.0,85,0.00,,,0.00,,2013-02-21 13:22:00,
2013-02-21 08:32:00,17.0,13.0,30.20,West,263,6.0,11.0,85,0.00,,,0.00,,2013-02-21 13:32:00,
2013-02-21 08:42:00,17.0,13.0,30.20,West,263,6.0,11.0,85,0.00,,,0.00,,2013-02-21 13:42:00,
2013-02-21 08:52:00,17.0,14.0,30.20,West,281,7.0,10.0,86,0.00,,,0.00,,2013-02-21 13:52:00,
2013-02-21 09:02:00,17.0,14.0,30.20,West,279,5.0,9.0,86,0.00,,,0.00,,2013-02-21 14:02:00,
2013-02-21 09:11:00,17.0,14.0,30.20,West,279,5.0,9.0,86,0.00,,,0.00,,2013-02-21 14:11:00,
2013-02-21 09:22:00,17.0,14.0,30.20,West,277,5.0,10.0,87,0.00,,,0.00,,2013-02-21 14:22:00,
2013-02-21 09:32:00,17.0,14.0,30.22,WNW,286,6.0,9.0,87,0.00,,,0.00,,2013-02-21 14:32:00,
2013-02-21 09:42:00,17.0,14.0,30.22,WNW,286,6.0,9.0,87,0.00,,,0.00,,2013-02-21 14:42:00,
2013-02-21 09:52:00,17.0,14.0,30.23,WNW,298,6.0,11.0,87,0.00,,,0.00,,2013-02-21 14:52:00,
2013-02-21 10:02:00,18.0,15.0,30.23,WNW,288,5.0,12.0,87,0.00,,,0.00,,2013-02-21 15:02:00,
2013-02-21 10:12:00,18.0,15.0,30.23,WNW,288,5.0,12.0,87,0.00,,,0.00,,2013-02-21 15:12:00,
2013-02-21 10:22:00,18.0,15.0,30.22,NNW,344,8.0,10.0,87,0.00,,,0.00,,2013-02-21 15:22:00,
2013-02-21 10:32:00,18.0,15.0,30.22,WNW,298,3.0,6.0,87,0.00,,,0.00,,2013-02-21 15:32:00,
2013-02-21 10:42:00,18.0,15.0,30.22,WNW,298,3.0,6.0,87,0.00,,,0.00,,2013-02-21 15:42:00,
2013-02-21 10:52:00,18.0,14.0,30.22,West,279,5.0,11.0,84,0.00,,,0.00,,2013-02-21 15:52:00,
2013-02-21 11:01:00,18.0,13.0,30.22,West,265,5.0,11.0,81,0.00,,,0.00,,2013-02-21 16:01:00,
2013-02-21 11:12:00,18.0,12.0,30.22,West,279,9.0,14.0,78,0.00,,,0.00,,2013-02-21 16:12:00,
2013-02-21 11:22:00,18.0,12.0,30.22,West,279,9.0,14.0,78,0.00,,,0.00,,2013-02-21 16:22:00,
2013-02-21 11:32:00,19.0,13.0,30.23,West,266,8.0,12.0,78,0.00,,,0.00,,2013-02-21 16:32:00,
2013-02-21 11:42:00,19.0,13.0,30.24,WNW,287,7.0,13.0,77,0.00,,,0.00,,2013-02-21 16:42:00,
2013-02-21 11:52:00,19.0,13.0,30.24,WNW,287,7.0,13.0,77,0.00,,,0.00,,2013-02-21 16:52:00,
2013-02-21 12:01:00,19.0,13.0,30.23,West,269,7.0,11.0,76,0.00,,,0.00,,2013-02-21 17:01:00,
2013-02-21 12:11:00,19.0,13.0,30.23,West,269,7.0,11.0,76,0.00,,,0.00,,2013-02-21 17:11:00,
2013-02-21 12:21:00,20.0,14.0,30.23,West,280,4.0,12.0,76,0.00,,,0.00,,2013-02-21 17:21:00,
2013-02-21 12:32:00,20.0,14.0,30.22,NNW,344,7.0,10.0,76,0.00,,,0.00,,2013-02-21 17:32:00,
2013-02-21 12:42:00,20.0,14.0,30.22,NNW,344,7.0,10.0,76,0.00,,,0.00,,2013-02-21 17:42:00,
2013-02-21 12:52:00,20.0,13.0,30.22,West,265,9.0,13.0,74,0.00,,,0.00,,2013-02-21 17:52:00,
2013-02-21 13:02:00,20.0,13.0,30.22,West,268,7.0,13.0,74,0.00,,,0.00,,2013-02-21 18:02:00,
2013-02-21 13:12:00,20.0,13.0,30.22,West,268,7.0,13.0,74,0.00,,,0.00,,2013-02-21 18:12:00,
2013-02-21 13:22:00,21.0,14.0,30.21,WSW,257,8.0,12.0,73,0.00,,,0.00,,2013-02-21 18:22:00,
2013-02-21 13:32:00,21.0,13.0,30.20,WSW,256,4.0,8.0,72,0.00,,,0.00,,2013-02-21 18:32:00,
2013-02-21 13:42:00,21.0,13.0,30.20,WSW,256,4.0,8.0,72,0.00,,,0.00,,2013-02-21 18:42:00,
2013-02-21 13:52:00,22.0,14.0,30.20,West,267,4.0,9.0,71,0.00,,,0.00,,2013-02-21 18:52:00,
2013-02-21 14:01:00,22.0,14.0,30.20,West,274,5.0,10.0,71,0.00,,,0.00,,2013-02-21 19:01:00,
2013-02-21 14:12:00,22.0,14.0,30.20,West,274,5.0,10.0,71,0.00,,,0.00,,2013-02-21 19:12:00,
2013-02-21 14:21:00,23.0,15.0,30.20,WNW,288,8.0,13.0,72,0.00,,,0.00,,2013-02-21 19:21:00,
2013-02-21 14:32:00,23.0,15.0,30.20,NW,324,5.0,11.0,72,0.00,,,0.00,,2013-02-21 19:32:00,
2013-02-21 14:42:00,23.0,15.0,30.20,NW,324,5.0,11.0,72,0.00,,,0.00,,2013-02-21 19:42:00,
2013-02-21 14:52:00,23.0,15.0,30.19,NW,304,5.0,9.0,72,0.00,,,0.00,,2013-02-21 19:52:00,
2013-02-21 15:01:00,23.0,15.0,30.19,NNW,342,3.0,11.0,71,0.00,,,0.00,,2013-02-21 20:01:00,
2013-02-21 15:11:00,24.0,16.0,30.18,NNE,21,4.0,8.0,71,0.00,,,0.00,,2013-02-21 20:11:00,
2013-02-21 15:21:00,24.0,16.0,30.18,NNE,21,4.0,8.0,71,0.00,,,0.00,,2013-02-21 20:21:00,
2013-02-21 15:32:00,24.0,16.0,30.18,North,355,5.0,10.0,72,0.00,,,0.00,,2013-02-21 20:32:00,
2013-02-21 15:42:00,24.0,16.0,30.18,North,355,5.0,10.0,72,0.00,,,0.00,,2013-02-21 20:42:00,
2013-02-21 15:53:00,24.0,16.0,30.18,NNE,15,4.0,9.0,71,0.00,,,0.00,,2013-02-21 20:53:00,
2013-02-21 16:02:00,25.0,18.0,30.18,NW,326,6.0,9.0,73,0.00,,,0.00,,2013-02-21 21:02:00,
2013-02-21 16:12:00,25.0,17.0,30.19,North,5,3.0,9.0,71,0.00,,,0.00,,2013-02-21 21:12:00,
2013-02-21 16:22:00,25.0,17.0,30.19,North,5,3.0,9.0,71,0.00,,,0.00,,2013-02-21 21:22:00,
2013-02-21 16:32:00,26.0,18.0,30.20,North,9,4.0,10.0,72,0.00,,,0.00,,2013-02-21 21:32:00,
2013-02-21 16:42:00,26.0,18.0,30.20,North,351,6.0,10.0,71,0.00,,,0.00,,2013-02-21 21:42:00,
2013-02-21 16:52:00,26.0,18.0,30.20,North,351,6.0,10.0,71,0.00,,,0.00,,2013-02-21 21:52:00,
2013-02-21 17:01:00,25.0,17.0,30.21,NNE,17,3.0,10.0,71,0.00,,,0.00,,2013-02-21 22:01:00,
2013-02-21 17:11:00,25.0,17.0,30.21,NNE,17,3.0,10.0,71,0.00,,,0.00,,2013-02-21 22:11:00,
2013-02-21 17:21:00,25.0,17.0,30.20,NNE,14,3.0,7.0,71,0.00,,,0.00,,2013-02-21 22:21:00,
2013-02-21 17:32:00,25.0,17.0,30.21,North,5,1.0,5.0,71,0.00,,,0.00,,2013-02-21 22:32:00,
2013-02-21 17:42:00,25.0,17.0,30.21,North,5,1.0,5.0,71,0.00,,,0.00,,2013-02-21 22:42:00,
2013-02-21 17:52:00,25.0,17.0,30.23,North,5,0.0,4.0,71,0.00,,,0.00,,2013-02-21 22:52:00,
2013-02-21 18:01:00,24.0,17.0,30.23,North,5,0.0,2.0,73,0.00,,,0.00,,2013-02-21 23:01:00,
2013-02-21 18:11:00,24.0,17.0,30.23,North,5,0.0,2.0,73,0.00,,,0.00,,2013-02-21 23:11:00,
2013-02-21 18:21:00,23.0,16.0,30.23,North,5,0.0,2.0,73,0.00,,,0.00,,2013-02-21 23:21:00,
2013-02-21 18:32:00,23.0,16.0,30.23,North,5,0.0,1.0,74,0.00,,,0.00,,2013-02-21 23:32:00,
2013-02-21 18:42:00,23.0,16.0,30.23,North,5,0.0,1.0,74,0.00,,,0.00,,2013-02-21 23:42:00,
2013-02-21 18:53:00,23.0,16.0,30.24,NE,51,1.0,3.0,74,0.00,,,0.00,,2013-02-21 23:53:00,
2013-02-21 19:01:00,23.0,16.0,30.22,NE,35,0.0,4.0,75,0.00,,,0.00,,2013-02-22 00:01:00,
2013-02-21 19:11:00,23.0,16.0,30.22,NE,35,0.0,4.0,75,0.00,,,0.00,,2013-02-22 00:11:00,
2013-02-21 19:22:00,22.0,15.0,30.22,ENE,70,1.0,6.0,75,0.00,,,0.00,,2013-02-22 00:22:00,
2013-02-21 19:32:00,22.0,16.0,30.23,East,97,0.0,4.0,76,0.00,,,0.00,,2013-02-22 00:32:00,
2013-02-21 19:42:00,22.0,16.0,30.23,East,97,0.0,4.0,76,0.00,,,0.00,,2013-02-22 00:42:00,
2013-02-21 19:52:00,22.0,16.0,30.24,NE,43,0.0,6.0,76,0.00,,,0.00,,2013-02-22 00:52:00,
2013-02-21 20:01:00,21.0,15.0,30.23,East,101,0.0,1.0,77,0.00,,,0.00,,2013-02-22 01:01:00,
2013-02-21 20:11:00,21.0,15.0,30.23,East,101,0.0,1.0,77,0.00,,,0.00,,2013-02-22 01:11:00,
2013-02-21 20:22:00,21.0,15.0,30.23,SE,127,1.0,4.0,78,0.00,,,0.00,,2013-02-22 01:22:00,
2013-02-21 20:32:00,21.0,15.0,30.23,NE,55,1.0,4.0,78,0.00,,,0.00,,2013-02-22 01:32:00,
2013-02-21 20:42:00,21.0,15.0,30.23,NE,55,1.0,4.0,78,0.00,,,0.00,,2013-02-22 01:42:00,
2013-02-21 20:52:00,21.0,15.0,30.22,SE,141,1.0,6.0,78,0.00,,,0.00,,2013-02-22 01:52:00,
2013-02-21 21:02:00,21.0,16.0,30.21,East,89,2.0,10.0,79,0.00,,,0.00,,2013-02-22 02:02:00,
2013-02-21 21:11:00,21.0,16.0,30.21,East,89,2.0,10.0,79,0.00,,,0.00,,2013-02-22 02:11:00,
2013-02-21 21:21:00,21.0,16.0,30.20,ESE,105,0.0,8.0,80,0.00,,,0.00,,2013-02-22 02:21:00,
2013-02-21 21:32:00,21.0,16.0,30.19,East,92,0.0,6.0,80,0.00,,,0.00,,2013-02-22 02:32:00,
2013-02-21 21:42:00,21.0,16.0,30.19,East,92,0.0,6.0,80,0.00,,,0.00,,2013-02-22 02:42:00,
2013-02-21 21:52:00,20.0,15.0,30.19,ESE,106,0.0,6.0,80,0.00,,,0.00,,2013-02-22 02:52:00,
2013-02-21 22:02:00,20.0,15.0,30.18,SE,141,2.0,5.0,81,0.00,,,0.00,,2013-02-22 03:02:00,
2013-02-21 22:11:00,20.0,15.0,30.18,SE,141,2.0,5.0,81,0.00,,,0.00,,2013-02-22 03:11:00,
2013-02-21 22:21:00,20.0,15.0,30.17,ENE,71,1.0,6.0,81,0.00,,,0.00,,2013-02-22 03:21:00,
2013-02-21 22:32:00,21.0,16.0,30.15,South,183,1.0,4.0,80,0.00,,,0.00,,2013-02-22 03:32:00,
2013-02-21 22:42:00,21.0,16.0,30.15,South,183,1.0,4.0,80,0.00,,,0.00,,2013-02-22 03:42:00,
2013-02-21 22:52:00,21.0,16.0,30.14,SSE,155,2.0,11.0,79,0.00,,,0.00,,2013-02-22 03:52:00,
2013-02-21 23:02:00,21.0,15.0,30.13,SE,145,1.0,5.0,78,0.00,,,0.00,,2013-02-22 04:02:00,
2013-02-21 23:11:00,21.0,15.0,30.13,SE,145,1.0,5.0,78,0.00,,,0.00,,2013-02-22 04:11:00,
2013-02-21 23:21:00,21.0,15.0,30.13,East,99,0.0,5.0,77,0.00,,,0.00,,2013-02-22 04:21:00,
2013-02-21 23:32:00,22.0,16.0,30.14,SE,130,0.0,2.0,77,0.00,,,0.00,,2013-02-22 04:32:00,
2013-02-21 23:42:00,22.0,16.0,30.14,SE,130,0.0,2.0,77,0.00,,,0.00,,2013-02-22 04:42:00,
2013-02-21 23:52:00,22.0,16.0,30.15,ESE,121,0.0,2.0,77,0.00,,,0.00,,2013-02-22 04:52:00,